Location: Allos
(44.2333°N, 6.6333°E)
Time: 09:56:58
(UTC+00:00)

Cosmos 1500 - Pass Details

Date: 01 December 2020
Orbit: 498 x 519 km, 82.5° (Epoch: 25 January)

Event Time Altitude Azimuth Distance (km) Brightness Sun altitude
Rises 17:01:08 0° 3° (N) 2,637 6.6 -11.4°
Reaches altitude 10° 17:03:33 10° 17° (NNE) 1,749 5.5 -11.8°
Maximum altitude 17:06:45 25° 74° (ENE) 1,083 4.2 -12.4°
Drops below altitude 10° 17:09:57 10° 130° (SE) 1,745 5.6 -12.9°
Sets 17:12:22 0° 144° (SE) 2,629 6.6 -13.3°
